Location: Limoges
(45.8354°N, 1.2645°E)
Time: 20:29:00
(UTC+02:00)

Courier 1B Rocket - Pass Details

Date: 22 February 2024
Orbit: 920 x 1201 km, 28.2° (Epoch: 20 April)

Event Time Altitude Azimuth Distance (km) Brightness Sun altitude
Rises 08:40:02 0° 244° (WSW) 3,594 7.6 7.9°
Reaches altitude 10° 08:44:36 10° 214° (SW) 2,696 7.3 8.6°
Maximum altitude 08:46:50 12° 194° (SSW) 2,588 7.4 9.0°
Drops below altitude 10° 08:49:06 10° 174° (S) 2,755 7.9 9.4°
Sets 08:53:56 0° 145° (SE) 3,778 9.3 10.1°
